Location: Palomar Mountain Lodge
(33.3110°N, 116.8495°W)
Time: 03:10:37
(UTC-07:00)

Cosmos 1048 Rocket - Pass Details

Date: 14 June 2018
Orbit: 744 x 792 km, 74.0° (Epoch: 22 October)

Event Time Altitude Azimuth Distance (km) Brightness Sun altitude
Exits shadow 22:14:54 56° 152° (SSE) 918 4.0 -22.7°
Maximum altitude 22:15:46 66° 104° (ESE) 845 3.9 -22.8°
Drops below altitude 10° 22:21:01 10° 23° (NNE) 2,339 6.9 -23.5°
Sets 22:23:27 0° 21° (NNE) 3,277 7.7 -23.8°
